QZS-3 (QZSS/PRN 189)

Last updated on Oct. 23, 2020, 5:57 a.m. UTC

1 42917U 17048A   20296.85110024 -.00000363  00000-0  00000-0 0  9996
2 42917   0.0781 137.1360 0002478  74.5249 253.4451  1.00267318 11569
UTC
Height (km)
Latitude
Longitude
Inclination
Orbital Period
UTC large
Height (km)
Speed (km/s)
/
Latitude / Longitude
Inclination (degrees)
Orbital Period (minutes)
Azimuth
Elevation
Range (km)
Doppler Factor
iOS Compass Heading
iOS Angle

Next 30 passes for location: Hong Kong

Rise time Rise Azimuth (degrees) Set time Set Azimuth (degrees) Duration Max altitude (degrees)

No matching passes for this satellites